KEPLER-20 (56217 NORAD) Tracking and Keplerian Element Data

This shows tracking and keplerian element data for the satellite.

Feedback or suggestion? Click here.




ElementValue
Catalog56217
NameKEPLER-20
Epoch Orbit295
Epoch Day120.71080233
Epoch Year2023
RAAN16.3309
Inclination97.4129
Eccentricity0.0011865
Argument of Perigee179.7888
Mean Anonmoly180.0869
Mean Motion15.22187599
Decay Rate0.00010389
L11 56217U 23054AR 23120.71080233 .00010389 00000+0 45446-3 0 9993
L22 56217 97.4129 16.3309 0011865 179.7888 180.0869 15.22187599 2953



Live tracking and technical data element details for KEPLER-20 (NORAD 56217). KEPLER-20 can be tracked NOW for your location showing map with azimuth and elevation plus other details from your city location.







IsCatalogInMostPopularTable: catalog: 56217, numindb: 4
Update: records affected: 1



GetName: 56217 KEPLER-20

Hit Count: updated at: Wed, 07 Jun 2023 10:12:25 GMT